Location: Central Falls
(41.8900°N, 71.3929°W)
Time: 12:59:57
(UTC+00:00)

A-11 Canister half - Pass Details

Date: 15 December 2023
Orbit: 1512 x 1687 km, 47.2° (Epoch: 20 February)

Event Time Altitude Azimuth Distance (km) Brightness Sun altitude
Rises 01:56:12 0° 228° (SW) 4,654 11.8 -51.2°
Reaches altitude 10° 01:59:13 10° 226° (SW) 3,686 11.2 -51.7°
Enters shadow 02:00:04 13° 225° (SW) 3,415 10.9 -51.9°
Maximum altitude 02:08:25 68° 145° (SE) 1,654 - -53.4°
Drops below altitude 10° 02:17:58 10° 66° (ENE) 3,818 - -55.0°
Sets 02:21:08 0° 64° (ENE) 4,829 - -55.6°
